Terminal Aerodrome Forecast
Issued by NWS Duluth, MN

Home | Current Version | Previous Version | Text Only | Print | Product List | Glossary On
Versions: 1 2 3 4 5 6 7 8 9 10 11 12 13
000
FTUS43 KDLH 291722
TAFINL
TAF
KINL 291722Z 2918/3018 04008KT P6SM SCT060
     FM300000 VRB03KT P6SM SKC
     FM301400 06010KT P6SM SCT050=

USA.gov is the U.S. government's official web portal to all federal, state and local government web resources and services.